User: anonymous   Login
Location: Buch am Rannenberg
(48.6989°N, 10.6399°E)
Time: 02:05:51
(UTC+00:00)
Language:

STARLINK-1348 - Orbit

View from above orbital plane
View from above orbital plane
View from above satellite
View from above satellite

Ground track
Ground track

The orbit data is extracted from the following two-line orbital elements,

1 45561U 20025AG  20221.75546204  .00002507  00000-0  38171-4 0  9998
2 45561  52.9972 229.9332 0007989 317.2952  42.7438 15.58932359 17601
Epoch (UTC): 08 August 2020 18:07:51
Eccentricity: 0.0007989
inclination: 52.9972°
perigee height: 385 km
apogee height: 396 km
right ascension of ascending node: 229.9332°
argument of perigee: 317.2952°
revolutions per day: 15.58932359
mean anomaly at epoch: 42.7438°
orbit number at epoch: 1760

The dashed part of the orbit path shows where the satellite is in the earth's shadow,  

DLR